CDT,Max TemperatureF,Mean TemperatureF,Min TemperatureF,Max Dew PointF,MeanDew PointF,Min DewpointF,Max Humidity, Mean Humidity, Min Humidity, Max Sea Level PressureIn, Mean Sea Level PressureIn, Min Sea Level PressureIn, Max VisibilityMiles, Mean VisibilityMiles, Min VisibilityMiles, Max Wind SpeedMPH, Mean Wind SpeedMPH, Max Gust SpeedMPH,PrecipitationIn, CloudCover, Events, WindDirDegrees
2013-3-1,35,34,32,32,32,28,100,95,87,30.11,30.07,30.04,10,5,1,16,7,21,0.09,7,,310
2013-3-2,32,30,28,28,25,19,93,82,69,30.21,30.15,30.08,10,8,2,16,10,21,0.01,8,,330
2013-3-3,39,31,23,28,18,14,80,58,39,30.20,30.15,30.09,10,10,10,10,5,,0.00,4,,301
2013-3-4,57,46,35,43,29,21,87,53,36,30.11,29.94,29.79,10,10,5,16,7,25,0.04,5,,130
2013-3-5,48,40,32,48,35,18,100,83,55,30.08,29.90,29.76,10,8,2,26,11,36,0.38,7,,301
2013-3-6,41,36,32,27,24,23,75,66,53,30.32,30.25,30.08,10,10,1,25,14,34,0.03,6,,333
2013-3-7,42,34,26,28,25,23,86,72,53,30.40,30.35,30.31,10,10,10,9,5,,0.00,2,,56
2013-3-8,53,40,26,28,27,25,93,61,33,30.43,30.34,30.24,10,10,8,13,6,16,0.00,0,,88
2013-3-9,66,54,41,36,31,27,61,46,28,30.24,30.10,29.95,10,10,10,14,7,21,0.00,3,,145
2013-3-10,64,57,50,54,44,36,100,65,39,29.96,29.86,29.74,10,8,2,23,12,40,0.67,4,,175
2013-3-11,51,43,35,50,36,28,100,80,65,30.01,29.86,29.76,10,10,4,22,10,29,0.00,8,,258
2013-3-12,50,39,28,30,27,19,93,62,34,30.17,30.09,30.01,10,10,10,16,7,22,0.00,2,,283
2013-3-13,42,37,32,27,20,16,69,51,39,30.41,30.32,30.17,10,10,10,20,11,32,0.00,2,,332
2013-3-14,44,34,23,28,22,18,86,59,39,30.41,30.32,30.14,10,10,10,9,4,,0.00,1,,171
2013-3-15,75,57,39,48,40,23,70,51,36,30.14,29.96,29.81,10,10,9,20,9,26,0.00,0,,219
2013-3-16,71,58,44,50,46,39,81,59,46,29.97,29.85,29.78,10,10,7,23,14,30,0.00,3,,275
2013-3-17,44,42,39,45,40,37,100,93,76,30.02,29.90,29.71,10,6,1,16,11,23,0.37,8,,70
2013-3-18,51,44,37,48,43,36,100,93,76,30.00,29.78,29.66,10,8,2,20,8,30,0.73,6,,303
2013-3-19,51,42,32,37,23,9,100,54,19,30.20,30.14,30.01,10,10,10,13,6,17,0.00,2,,337
2013-3-20,44,36,28,30,23,16,70,58,42,30.20,30.14,30.07,10,10,9,18,6,28,0.00,1,,325
2013-3-21,41,31,21,19,15,9,80,52,33,30.11,30.05,29.96,10,10,10,13,3,16,0.00,2,,350
2013-3-22,42,37,32,27,22,18,61,53,45,30.02,29.99,29.95,10,10,10,12,8,,0.00,8,,89
2013-3-23,53,46,39,45,33,25,100,64,44,29.99,29.89,29.69,10,10,5,16,9,21,0.06,8,,75
2013-3-24,46,39,32,46,39,28,100,94,81,29.77,29.60,29.47,10,6,1,26,12,37,0.28,8,,328
2013-3-25,37,34,32,32,27,23,100,79,65,30.16,29.96,29.78,10,9,1,22,17,31,0.00,8,,288
2013-3-26,41,34,28,30,27,25,100,76,53,30.35,30.26,30.16,10,9,1,13,9,17,0.01,7,,304
2013-3-27,48,36,24,32,25,21,93,61,40,30.40,30.35,30.31,10,10,10,8,2,17,0.00,2,,333
2013-3-28,57,47,37,36,31,25,81,55,36,30.37,30.31,30.26,10,10,10,7,2,,0.00,5,,95
2013-3-29,55,48,42,46,42,34,100,80,58,30.29,30.23,30.18,10,9,2,12,6,22,0.25,7,,135
2013-3-30,51,44,37,50,45,37,100,95,76,30.20,30.08,29.92,10,4,0,9,4,,0.13,8,,127
2013-3-31,60,54,48,52,48,45,100,86,55,29.96,29.91,29.88,10,7,0,13,5,,0.02,4,,264